Portada
METAR-TAF:

METAR-TAF

Aeropuertos :

Padua, Italia

latitud: 45-23-45N, longitud: 11-50-53E, altitud: 13 m

Observación

El informe se hizo hace 14 horas y 27 minutos, a las 07:00 UTC
Viento 1 kt con dirección variable
Temperatura 0°C
Humedad 100%
Presión 1016 hPa
Visibilidad: 1000 m
neblina

METAR: LIPU 210700Z VRB01KT 1000 BR NSC 00/00 Q1016

Hora: 22:27 (21:27 UTC)


TAF: falta

Observaciones y pronósticos meteorológicos de más de 4000 aeropuertos (mensajes METAR y TAF).

Los puntos amarillos y rojos representan las estaciones disponibles.

Ponga el ratón en el punto deseado para ver el nombre de la estación.

Haga clic para ver las observaciones y los pronósticos meteorológicos.

Para cambiar el mapa : haga clic en los botones verdes con una cruz de color negro para hacer un zoom, en el botón verde con un guión para alejar o en las flechas verdes para mapas adyacentes.


METAR-TAF: